WXForecasting.com
Aberdeen, SD - Weather Station Data
 
Daily Summary for December 18, 2017 Units:  English    Metric   Both
« Previous Day
Next Day »
Daily Weekly Monthly Yearly Custom
  Current: High: Low: Average:
Temperature: 27.0 °F 34.2 °F 26.2 °F 28.7 °F
Dew Point: 23.0 °F 30.0 °F 22.0 °F 25 °F
Humidity: 85 % 87 % 84 % 86 %
Wind Speed: 5.0 mph 7.0 mph 0.0 mph 3.2 mph
Wind Gust: 6.0 mph 10.0 mph - -
Wind:SSW - - SSW
Pressure: 29.77 in 29.87 in 29.77 in -
Precipitation: 0.00 in      
Historical Graphs
 
 
Tabular Data for December 18, 2017
Time Temperature Dew Point Pressure Wind Wind Speed Wind Gust Humidity Rainfall Rate (Hourly) solar Conditions
00:04 32.4 °F 28.0 °F 29.87 in SSW 4.0 mph 7.0 mph 85 % 0.00 in 0 W/m2
00:34 33.5 °F 30.0 °F 29.86 in SSW 3.0 mph 8.0 mph 85 % 0.00 in 0 W/m2
00:51 34.1 °F 30.0 °F 29.84 in SSE 7.0 mph 9.0 mph 85 % 0.00 in 0 W/m2
01:04 34.2 °F 30.0 °F 29.84 in SSW 4.0 mph 9.0 mph 84 % 0.00 in 0 W/m2
01:19 33.8 °F 30.0 °F 29.83 in South 6.0 mph 10.0 mph 84 % 0.00 in 0 W/m2
01:34 33.2 °F 29.0 °F 29.83 in SSW 3.0 mph 8.0 mph 84 % 0.00 in 0 W/m2
01:49 32.5 °F 29.0 °F 29.82 in SSW 5.0 mph 9.0 mph 85 % 0.00 in 0 W/m2
02:04 31.8 °F 28.0 °F 29.82 in SSW 4.0 mph 7.0 mph 85 % 0.00 in 0 W/m2
02:19 31.0 °F 27.0 °F 29.82 in South 5.0 mph 8.0 mph 85 % 0.00 in 0 W/m2
02:34 30.4 °F 26.0 °F 29.82 in SSW 3.0 mph 8.0 mph 85 % 0.00 in 0 W/m2
02:50 29.7 °F 26.0 °F 29.82 in SSW 4.0 mph 7.0 mph 86 % 0.00 in 0 W/m2
03:05 28.9 °F 25.0 °F 29.82 in SSW 5.0 mph 7.0 mph 86 % 0.00 in 0 W/m2
03:19 28.0 °F 24.0 °F 29.81 in SSW 5.0 mph 7.0 mph 86 % 0.00 in 0 W/m2
03:34 27.6 °F 24.0 °F 29.80 in SSW 2.0 mph 7.0 mph 86 % 0.00 in 0 W/m2
03:49 27.5 °F 24.0 °F 29.80 in SW 5.0 mph 6.0 mph 87 % 0.00 in 0 W/m2
04:05 27.4 °F 24.0 °F 29.80 in SW 4.0 mph 7.0 mph 87 % 0.00 in 0 W/m2
04:19 27.2 °F 24.0 °F 29.81 in SW 2.0 mph 5.0 mph 87 % 0.00 in 0 W/m2
04:35 27.1 °F 24.0 °F 29.80 in SW 2.0 mph 4.0 mph 87 % 0.00 in 0 W/m2
04:49 26.8 °F 23.0 °F 29.80 in SW 2.0 mph 5.0 mph 86 % 0.00 in 0 W/m2
05:05 26.7 °F 23.0 °F 29.80 in SW 2.0 mph 6.0 mph 86 % 0.00 in 0 W/m2
05:20 26.5 °F 23.0 °F 29.80 in SW 1.0 mph 4.0 mph 86 % 0.00 in 0 W/m2
05:35 26.4 °F 23.0 °F 29.80 in SW 4.0 mph 4.0 mph 86 % 0.00 in 0 W/m2
05:50 26.2 °F 23.0 °F 29.79 in Calm   4.0 mph 86 % 0.00 in 0 W/m2
06:05 26.3 °F 23.0 °F 29.79 in SW 2.0 mph 4.0 mph 86 % 0.00 in 0 W/m2
06:20 26.5 °F 23.0 °F 29.78 in Calm   4.0 mph 86 % 0.00 in 0 W/m2
06:36 26.6 °F 23.0 °F 29.79 in SW 2.0 mph 4.0 mph 86 % 0.00 in 0 W/m2
06:50 26.7 °F 23.0 °F 29.78 in SW 1.0 mph 4.0 mph 85 % 0.00 in 0 W/m2
07:05 26.6 °F 23.0 °F 29.78 in SW 1.0 mph 3.0 mph 85 % 0.00 in 0 W/m2
07:20 26.6 °F 23.0 °F 29.78 in SSW 3.0 mph 5.0 mph 85 % 0.00 in 0 W/m2
07:35 26.6 °F 23.0 °F 29.77 in SSW 5.0 mph 7.0 mph 85 % 0.00 in 0 W/m2
07:50 26.3 °F 22.0 °F 29.77 in South 3.0 mph 8.0 mph 84 % 0.00 in 0 W/m2
08:05 26.4 °F 23.0 °F 29.77 in SW 3.0 mph 8.0 mph 85 % 0.00 in 0 W/m2
08:20 26.8 °F 23.0 °F 29.77 in SSW 2.0 mph 7.0 mph 85 % 0.00 in 9 W/m2
08:35 27.0 °F 23.0 °F 29.77 in SSW 5.0 mph 6.0 mph 85 % 0.00 in 25 W/m2
Compliments of Weather Underground - 1 mb